Flag for U.S.A. Weather past 2 weeks in Sterling Heights, Michigan, U.S.A.

54 °F

Mostly cloudy.

Feels Like: 54 °F
Forecast: 52 / 70 °F
Wind: 2 mph from West

Location: Selfridge Air National Guard Base

Current Time: Oct 7, 2015 at 4:58:55 AM

Latest Report: Oct 7, 2015 at 3:58 AM

Visibility: 10 mi

Pressure: 30.05 "Hg

Humidity: 99%

Dew point: 54 °F

Location of Sterling HeightsLocation

Historic Weather in Sterling Heights — Graph


Sterling Heights temperature yesterday

Maximum temperature yesterday: 63 °F (at 5:55 PM)
Minimum temperature yesterday: 51 °F (at 11:58 PM)
Average temperature yesterday: 58 °F

Past Weeks' High & Low Weather Summary

High78 °F (Sep 25, 3:55 PM)100% (Sep 29, 3:03 AM)30.42 "Hg (Sep 29, 3:03 AM)
Low44 °F (Oct 1, 7:55 AM)12% (Sep 22, 9:55 AM)29.91 "Hg (Sep 29, 6:03 AM)
Average60 °F77%30.21 "Hg
* Reported Sep 22 3:58 AM — Oct 7 3:58 AM, Sterling Heights, Weather by CustomWeather, © 2015

Note: Actual official high and low records may vary slightly from our data, if they occured in-between our weather recording intervals... More about our weather records


Sterling Heights weather history for previous 24 hours

Time TempWeatherWind HumidityBarometerVisibility
3:58 AM
Wed, Oct 7
54 °FMostly cloudy.2 mph99%30.05 "Hg10 mi
2:58 AM52 °FOvercast.2 mph99%30.06 "Hg10 mi
2:03 AM50 °FPassing clouds.3 mph100%30.06 "Hg9 mi
1:58 AM50 °FClear.2 mph99%30.06 "Hg10 mi
1:03 AM50 °FFog.No wind100%30.06 "Hg1 mi
12:58 AM49 °FFog.No wind98%30.07 "Hg1 mi
11:58 PM
Tue, Oct 6
51 °FClear.No wind98%30.07 "Hg10 mi
11:03 PM54 °FFog.2 mph100%30.06 "Hg1 mi
10:58 PM55 °FFog.1 mph96%30.08 "Hg4 mi
9:58 PM58 °FClear.2 mph89%30.08 "Hg10 mi
8:58 PM60 °FPassing clouds.5 mph89%30.07 "Hg10 mi
7:55 PM61 °FOvercast.7 mph30%30.09 "Hg10 mi
6:55 PM62 °FMostly cloudy.5 mph85%30.09 "Hg7 mi
5:55 PM63 °FMostly cloudy.5 mph84%30.09 "Hg6 mi
4:55 PM62 °FOvercast.6 mph84%30.09 "Hg5 mi
3:55 PM62 °FFog.3 mph86%30.10 "Hg4 mi
2:55 PM61 °FFog.3 mph87%30.11 "Hg4 mi
1:55 PM62 °FFog.2 mph85%30.13 "Hg5 mi
12:55 PM61 °FFog.No wind86%30.15 "Hg2 mi
11:55 AM59 °FFog.No wind90%30.16 "Hg2 mi
10:55 AM58 °FFog.No wind91%30.16 "Hg2 mi
9:55 AM57 °FFog.No wind95%30.16 "Hg2 mi
8:55 AM56 °FFog.3 mph95%30.16 "Hg1 mi
7:55 AM57 °FFog.No wind95%30.15 "Hg3 mi
6:58 AM56 °FLow clouds.No wind95%30.13 "Hg8 mi
6:03 AM57 °FLow clouds.2 mph94%30.12 "Hg8 mi
5:58 AM56 °FLow clouds.2 mph96%30.12 "Hg8 mi
4:58 AM56 °FLow clouds.2 mph95%30.12 "Hg8 mi
Weather by CustomWeather, © 2015

See weather overviewHow to use our weather pages